ロニオス彗星

267P/LONEOS (2006)

English version
Home page
Updated on September 22, 2012

---------------------------------------------------------------------

・ プロフィール

符号 267P/2006 Q2
発見日 2006年8月29日
発見光度 18.2等
発見者 Lowell Observatory Near-Earth Object Search

・ 写真集

・ 軌道要素

Epoch 2006 Sept. 22.0 TT = JDT 2454000.5
T 2006 Sept. 2.89821 TT                                 MPC
q   1.3379031            (2000.0)            P               Q
n   0.16522803     Peri.   96.85415     +0.94767199     +0.30773089
a   3.2891239      Node   245.25194     -0.31717893     +0.87734117
e   0.5932342      Incl.    5.36847     -0.03626742     +0.36820398
P   5.97
From 153 observations 2006 Aug. 29-2012 Sept. 12, mean residual 0".46.

・ 光度変化

        m1 = 19.5 + 5 logΔ + 10.0 log r

---------------------------------------------------------------------

軌道要素はM.P.E.C. 2012-R28に掲載されたものです。
光度グラフはComet for Windowsで作成したものです。

---------------------------------------------------------------------

Copyright(C) Seiichi Yoshida (comet@aerith.net). All rights reserved.